Location: Atherton
(17.2661°S, 145.4859°E)
Time: 04:26:39
(UTC+10:00)

Hubble Space Telescope - Pass Details

Date: 16 February 2026
Orbit: 476 x 479 km, 28.5° (Epoch: 6 March)

Event Time Altitude Azimuth Distance (km) Brightness Sun altitude
Rises 19:12:03 0° 259° (W) 2,519 7.0 -5.7°
Reaches altitude 10° 19:14:39 10° 242° (WSW) 1,643 4.9 -6.3°
Maximum altitude 19:17:32 20° 192° (SSW) 1,144 2.8 -6.9°
Drops below altitude 10° 19:20:25 10° 142° (SE) 1,646 3.0 -7.6°
Sets 19:23:02 0° 125° (SE) 2,525 3.8 -8.2°
Enters shadow 19:23:04 - 125° (SE) 2,541 3.8 -8.2°
